Weather History for KPTK - July, 2012

Change the Weather History Date:

Monday, July 2, 2012

  Actual Average Record
Temperature  
Mean Temperature 78 °F -  
Max Temperature 95 °F 79 °F 96 °F (2011)
Min Temperature 63 °F 59 °F 45 °F (2001)
Cooling Degree Days 13    
Growing Degree Days 28 (Base 50)    
Moisture  
Dew Point 58 °F    
Average Humidity 51    
Maximum Humidity 84    
Minimum Humidity 26    
Precipitation  
Precipitation 0.00 in - - ()
Sea Level Pressure  
Sea Level Pressure 29.97 in    
Wind  
Wind Speed 3 mph (SSE)    
Max Wind Speed 9 mph    
Max Gust Speed -    
Visibility 10 miles    
Events      
Averages and records for this station are not official NWS values.
T = Trace of Precipitation, MM = Missing Value Source: NWS Daily Summary

Daily Weather History Graph

Daily Weather History Graph

Search for Another Location

Airport or City:

Trip Planner

Search our weather history database for the weather conditions in past years. The results will help you decide how hot, cold, wet, or windy it might be!

Date:

Astronomy

Jul. 02, 2012 Rise Set
Actual Time 6:00 AM EDT 9:15 PM EDT
Civil Twilight 5:25 AM EDT 9:49 PM EDT
Nautical Twilight 4:40 AM EDT 10:34 PM EDT
Astronomical Twilight 3:45 AM EDT 11:29 PM EDT
Moon 8:16 PM EDT (7/2) 4:46 AM EDT (7/2)
Length of Visible Light 16h 24m
Length of Day
15h 14m
Waxing Gibbous, 98% of the Moon is Illuminated
Jul 2
Waxing Gibbous
Jul 3
Full
Jul 10
Last Quarter
Jul 19
New
Jul 26
First Quarter

Hourly Weather History & Observations

Time (EDT) Temp. Heat Index Dew Point Humidity Pressure Visibility Wind Dir Wind Speed Gust Speed Precip Events Conditions
12:53 AM 71.1 °F - 57.9 °F 63% 29.96 in 10.0 mi Calm Calm - N/A   Clear
1:53 AM 69.1 °F - 57.9 °F 68% 29.96 in 10.0 mi Calm Calm - N/A   Clear
2:53 AM 64.9 °F - 57.9 °F 78% 29.97 in 10.0 mi East 3.5 mph - N/A   Clear
3:53 AM 64.9 °F - 59.0 °F 81% 29.97 in 10.0 mi NE 3.5 mph - N/A   Clear
4:53 AM 66.0 °F - 57.9 °F 75% 29.96 in 10.0 mi Calm Calm - N/A   Clear
5:53 AM 63.0 °F - 57.9 °F 84% 29.98 in 10.0 mi Calm Calm - N/A   Partly Cloudy
6:53 AM 66.9 °F - 57.9 °F 73% 30.00 in 10.0 mi Calm Calm - N/A   Partly Cloudy
7:53 AM 72.0 °F - 57.0 °F 59% 30.01 in 10.0 mi East 3.5 mph - N/A   Clear
8:53 AM 79.0 °F - 60.1 °F 52% 30.01 in 10.0 mi Calm Calm - N/A   Partly Cloudy
9:53 AM 82.0 °F 82.7 °F 61.0 °F 49% 30.01 in 10.0 mi SE 5.8 mph - N/A   Partly Cloudy
10:53 AM 84.9 °F 85.0 °F 61.0 °F 44% 30.01 in 10.0 mi Variable 3.5 mph - N/A   Clear
11:53 AM 87.1 °F 86.5 °F 59.0 °F 39% 30.01 in 10.0 mi SW 6.9 mph - N/A   Partly Cloudy
12:53 PM 90.0 °F 88.8 °F 57.9 °F 34% 30.00 in 10.0 mi NW 8.1 mph - N/A   Scattered Clouds
1:53 PM 91.0 °F 89.7 °F 57.0 °F 32% 29.99 in 10.0 mi WNW 9.2 mph - N/A   Scattered Clouds
2:53 PM 93.0 °F 91.1 °F 55.0 °F 28% 29.97 in 10.0 mi North 8.1 mph - N/A   Mostly Cloudy
3:53 PM 93.0 °F 91.4 °F 55.9 °F 29% 29.96 in 10.0 mi Variable 4.6 mph - N/A   Mostly Cloudy
4:53 PM 93.9 °F 91.7 °F 54.0 °F 26% 29.95 in 10.0 mi WNW 8.1 mph - N/A   Mostly Cloudy
5:53 PM 93.0 °F 90.8 °F 54.0 °F 27% 29.94 in 10.0 mi Calm Calm - N/A   Mostly Cloudy
6:53 PM 91.9 °F 90.0 °F 55.0 °F 29% 29.92 in 10.0 mi Calm Calm - N/A   Mostly Cloudy
7:53 PM 87.1 °F 88.9 °F 64.9 °F 48% 29.92 in 10.0 mi SE 9.2 mph - N/A   Mostly Cloudy
8:53 PM 84.9 °F 85.4 °F 62.1 °F 46% 29.93 in 10.0 mi SSE 8.1 mph - N/A   Mostly Cloudy
9:53 PM 82.0 °F 82.7 °F 61.0 °F 49% 29.94 in 10.0 mi SSE 6.9 mph - N/A   Mostly Cloudy
10:53 PM 80.6 °F 81.5 °F 60.8 °F 51% 29.97 in 10.0 mi South 5.8 mph - N/A   Mostly Cloudy
11:53 PM 79.0 °F - 61.0 °F 54% 29.94 in 10.0 mi South 3.5 mph - N/A   Mostly Cloudy